TimeAST,TemperatureF,Dew PointF,Humidity,Sea Level PressureIn,VisibilityMPH,Wind Direction,Wind SpeedMPH,Gust SpeedMPH,PrecipitationIn,Events,Conditions,WindDirDegrees,DateUTC
12:56 AM,77.0,72.0,84,29.96,10.0,Calm,Calm,-,N/A,,Scattered Clouds,0,2013-11-25 04:56:00
1:56 AM,77.0,72.0,84,29.95,10.0,South,3.5,-,N/A,,Scattered Clouds,190,2013-11-25 05:56:00
2:56 AM,77.0,71.1,82,29.94,10.0,Calm,Calm,-,N/A,,Partly Cloudy,0,2013-11-25 06:56:00
3:56 AM,77.0,72.0,84,29.94,10.0,SSW,3.5,-,N/A,,Partly Cloudy,210,2013-11-25 07:56:00
4:56 AM,75.0,72.0,90,29.95,10.0,Calm,Calm,-,N/A,,Clear,0,2013-11-25 08:56:00
5:56 AM,75.0,72.0,90,29.95,10.0,Calm,Calm,-,N/A,,Partly Cloudy,0,2013-11-25 09:56:00
6:56 AM,75.0,72.0,90,29.96,10.0,Calm,Calm,-,N/A,,Scattered Clouds,0,2013-11-25 10:56:00
7:56 AM,75.9,72.0,87,29.99,10.0,Calm,Calm,-,N/A,,Scattered Clouds,0,2013-11-25 11:56:00
8:56 AM,78.1,72.0,81,30.01,10.0,ENE,4.6,-,N/A,,Mostly Cloudy,70,2013-11-25 12:56:00
9:56 AM,78.1,72.0,81,30.02,10.0,East,8.1,-,N/A,,Mostly Cloudy,100,2013-11-25 13:56:00
10:56 AM,80.1,71.1,74,30.01,10.0,East,11.5,-,N/A,,Scattered Clouds,90,2013-11-25 14:56:00
11:56 AM,84.0,72.0,67,30.00,10.0,ENE,15.0,-,N/A,,Scattered Clouds,70,2013-11-25 15:56:00
12:56 PM,84.0,72.0,67,29.97,10.0,East,15.0,20.7,N/A,,Scattered Clouds,90,2013-11-25 16:56:00
1:56 PM,84.0,72.0,67,29.96,10.0,East,16.1,21.9,N/A,,Scattered Clouds,90,2013-11-25 17:56:00
2:56 PM,82.9,72.0,69,29.95,10.0,ENE,16.1,-,N/A,,Mostly Cloudy,70,2013-11-25 18:56:00
3:56 PM,82.9,69.1,63,29.95,10.0,East,13.8,-,N/A,,Scattered Clouds,90,2013-11-25 19:56:00
4:56 PM,81.0,70.0,69,29.97,10.0,East,13.8,-,N/A,,Scattered Clouds,90,2013-11-25 20:56:00
5:56 PM,80.1,71.1,74,29.98,10.0,East,10.4,-,N/A,,Scattered Clouds,90,2013-11-25 21:56:00
6:56 PM,79.0,71.1,77,30.00,10.0,East,8.1,-,N/A,,Scattered Clouds,90,2013-11-25 22:56:00
7:56 PM,79.0,71.1,77,30.01,10.0,East,10.4,-,N/A,,Scattered Clouds,90,2013-11-25 23:56:00
8:56 PM,77.0,72.0,84,30.01,10.0,ESE,5.8,-,0.04,Rain,Light Rain,120,2013-11-26 00:56:00
9:56 PM,77.0,73.0,88,30.01,10.0,East,3.5,-,0.00,,Scattered Clouds,100,2013-11-26 01:56:00
10:56 PM,77.0,73.0,88,30.01,10.0,ESE,3.5,-,0.00,,Scattered Clouds,120,2013-11-26 02:56:00
11:56 PM,77.0,72.0,84,29.99,10.0,ESE,5.8,-,0.01,,Partly Cloudy,120,2013-11-26 03:56:00